Find Starlink 1568

NORAD ID: 46080 Int'l Des: 2020-055 Owner: SPXS Country: US Constellation: starlink operational
LEOCIRCULAR

实时位置

正在加载3D地球...

关于 Starlink 1568

正在加载描述...

即将过境

Passes for default location (London). Set your location on the main map for personalized predictions.

高度历史

Loading altitude history...

两行轨道根数

1 46080U 20055BF 26133.26460911 .00029040 00000-0 48193-3 0 9997
2 46080 53.0581 83.5586 0004728 21.0975 339.0228 15.51894702320208
Epoch: May 13, 2026 • Age: 15 hours

当前状态

高度 418.1 km
速度 7.66 km/s
星下点 -28.67°S, 140.04°W
发射日期 Aug 7, 2020
运行时间 5.7 years
类型 internet

技术详情

分类 Payload
质量 260.00 kg
干质量 248.00 kg
总质量 260.00 kg
长度 0.20 m
直径 2.80 m
跨度 9.00 m
形状 Box + pan
制造商 SPXS
平台类型 Starlink
阶段状态 In Orbit
所有者/国家 SPXS/US

Most Searched